| time (UTC) | temp F | wind direction | speed MPH | gust MPH | rain 1hr in | rain 24hr in | rain mn in | humidity % | barometer mb |
| 20260906153045 | 90 | 285 | 0.0 | 5.0 | 0.00 | 0.00 | 0.00 | 32 | 1012.4 |
| 20260906151542 | 90 | 224 | 2.0 | 6.0 | 0.00 | 0.00 | 0.00 | 17 | 1012.6 |
| 20260906150040 | 89 | 74 | 0.0 | 6.0 | 0.00 | 0.00 | 0.00 | 11 | 1012.4 |
| 20260906144537 | 89 | 248 | 2.0 | 7.0 | 0.00 | 0.00 | 0.00 | 11 | 1012.5 |
| 20260906143034 | 88 | 290 | 2.0 | 7.0 | 0.00 | 0.00 | 0.00 | 11 | 1012.5 |
| 20260906141529 | 86 | 329 | 1.0 | 5.0 | 0.00 | 0.00 | 0.00 | 11 | 1012.7 |
| 20260906140040 | 83 | 308 | 3.0 | 6.0 | 0.00 | 0.00 | 0.00 | 11 | 1012.6 |
| 20260906134520 | 80 | 310 | 2.0 | 4.0 | 0.00 | 0.00 | 0.00 | 11 | 1012.5 |
| 20260906133001 | 79 | 262 | 0.0 | 0.0 | 0.00 | 0.00 | 0.00 | 11 | 1012.6 |
| 20260906131601 | 78 | 167 | 0.0 | 0.0 | 0.00 | 0.00 | 0.00 | 11 | 1012.5 |
| 20260906130046 | 77 | 125 | 0.0 | 0.0 | 0.00 | 0.00 | 0.00 | 11 | 1012.5 |
| 20260906124543 | 76 | 126 | 0.0 | 0.0 | 0.00 | 0.00 | 0.00 | 11 | 1012.6 |
| 20260906123027 | 76 | 125 | 0.0 | 0.0 | 0.00 | 0.00 | 0.00 | 11 | 1012.6 |
| 20260906121525 | 76 | 125 | 0.0 | 0.0 | 0.00 | 0.00 | 0.00 | 11 | 1012.4 |
| 20260906120025 | 75 | 125 | 0.0 | 0.0 | 0.00 | 0.00 | 0.00 | 11 | 1012.4 |
| 20260906114526 | 0 | 0.0 | 0.0 | 0.00 | 0.00 | 0.00 | 1012.3 | ||
| 20260906113017 | 0 | 0.0 | 0.0 | 0.00 | 0.00 | 0.00 | 1012.2 | ||
| 20260906111512 | 0 | 0.0 | 0.0 | 0.00 | 0.00 | 0.00 | 1012.2 | ||
| 20260906110007 | 0 | 0.0 | 0.0 | 0.00 | 0.00 | 0.00 | 1012.2 | ||
| 20260906104504 | 0 | 0.0 | 0.0 | 0.00 | 0.00 | 0.00 | 1012.0 | ||
| 20260906103041 | 0 | 0.0 | 0.0 | 0.00 | 0.00 | 0.00 | 1011.8 | ||
| 20260906101538 | 0 | 0.0 | 0.0 | 0.00 | 0.00 | 0.00 | 1011.7 | ||
| 20260906100015 | 0 | 0.0 | 0.0 | 0.00 | 0.00 | 0.00 | 1011.8 | ||
| 20260906094511 | 0 | 0.0 | 0.0 | 0.00 | 0.00 | 0.00 | 1011.5 | ||
| 20260906093100 | 74 | 126 | 0.0 | 0.0 | 0.00 | 0.00 | 0.00 | 11 | 1011.3 |
| 20260906091549 | 74 | 125 | 0.0 | 0.0 | 0.00 | 0.00 | 0.00 | 11 | 1011.1 |
| 20260906090042 | 74 | 126 | 0.0 | 0.0 | 0.00 | 0.00 | 0.00 | 11 | 1011.1 |
| 20260906084534 | 75 | 126 | 0.0 | 0.0 | 0.00 | 0.00 | 0.00 | 11 | 1011.1 |
| 20260906083018 | 75 | 125 | 0.0 | 0.0 | 0.00 | 0.00 | 0.00 | 11 | 1010.9 |
| 20260906081510 | 75 | 125 | 0.0 | 0.0 | 0.00 | 0.00 | 0.00 | 11 | 1011.0 |
| 20260906074553 | 75 | 125 | 0.0 | 0.0 | 0.00 | 0.00 | 0.00 | 11 | 1011.0 |
| 20260906073029 | 75 | 126 | 0.0 | 0.0 | 0.00 | 0.00 | 0.00 | 11 | 1011.2 |
| 20260906071527 | 76 | 126 | 0.0 | 0.0 | 0.00 | 0.00 | 0.00 | 11 | 1011.3 |
| 20260906070008 | 76 | 126 | 0.0 | 0.0 | 0.00 | 0.00 | 0.00 | 11 | 1011.4 |
| 20260906064507 | 76 | 126 | 0.0 | 0.0 | 0.00 | 0.00 | 0.00 | 11 | 1011.4 |
| 20260906063053 | 76 | 125 | 0.0 | 2.0 | 0.00 | 0.00 | 0.00 | 11 | 1011.5 |
| 20260906061551 | 77 | 126 | 0.0 | 0.0 | 0.00 | 0.00 | 0.00 | 11 | 1011.5 |
| 20260906060026 | 77 | 125 | 0.0 | 0.0 | 0.00 | 0.00 | 0.00 | 11 | 1011.7 |
| 20260906054523 | 78 | 125 | 0.0 | 0.0 | 0.00 | 0.00 | 0.00 | 11 | 1011.9 |
| 20260906053005 | 78 | 125 | 0.0 | 0.0 | 0.00 | 0.00 | 0.00 | 11 | 1011.8 |
| 20260906051505 | 78 | 149 | 0.0 | 0.0 | 0.00 | 0.00 | 0.00 | 11 | 1012.0 |
| 20260906050047 | 78 | 150 | 0.0 | 0.0 | 0.00 | 0.00 | 0.00 | 11 | 1011.9 |
| 20260906044547 | 79 | 150 | 0.0 | 2.0 | 0.00 | 0.00 | 0.00 | 11 | 1012.0 |
| 20260906043033 | 79 | 170 | 0.0 | 3.0 | 0.00 | 0.00 | 0.00 | 11 | 1012.0 |
| 20260906041542 | 79 | 56 | 0.0 | 2.0 | 0.00 | 0.00 | 0.00 | 11 | 1012.1 |
| 20260906040012 | 80 | 167 | 0.0 | 0.0 | 0.00 | 0.00 | 0.00 | 11 | 1012.0 |
| 20260906034514 | 80 | 167 | 0.0 | 0.0 | 0.00 | 0.00 | 0.00 | 11 | 1012.1 |
| 20260906033100 | 80 | 167 | 0.0 | 1.0 | 0.00 | 0.00 | 0.00 | 11 | 1012.2 |
| 20260906031559 | 81 | 148 | 0.0 | 0.0 | 0.00 | 0.00 | 0.00 | 11 | 1012.5 |
| 20260906030058 | 81 | 148 | 0.0 | 0.0 | 0.00 | 0.00 | 0.00 | 11 | 1012.6 |
| 20260906024618 | 81 | 148 | 0.0 | 0.0 | 0.00 | 0.00 | 0.00 | 11 | 1012.8 |
| 20260906023105 | 81 | 148 | 0.0 | 0.0 | 0.00 | 0.00 | 0.00 | 11 | 1012.3 |
| 20260906021557 | 82 | 148 | 0.0 | 0.0 | 0.00 | 0.00 | 0.00 | 11 | 1011.9 |
| 20260906020055 | 83 | 148 | 0.0 | 0.0 | 0.00 | 0.00 | 0.00 | 11 | 1011.9 |
| 20260906014556 | 83 | 288 | 0.0 | 0.0 | 0.00 | 0.03 | 0.00 | 11 | 1011.5 |
| 20260906013038 | 83 | 288 | 0.0 | 0.0 | 0.00 | 0.03 | 0.00 | 11 | 1011.0 |
| 20260906011552 | 84 | 288 | 0.0 | 0.0 | 0.00 | 0.03 | 0.00 | 11 | 1010.8 |
| 20260906010046 | 84 | 288 | 0.0 | 0.0 | 0.00 | 0.03 | 0.00 | 11 | 1010.7 |
| 20260906004520 | 85 | 288 | 0.0 | 0.0 | 0.00 | 0.03 | 0.00 | 11 | 1010.4 |
| 20260906003001 | 86 | 288 | 0.0 | 0.0 | 0.00 | 0.03 | 0.00 | 11 | 1010.3 |
| 20260906001607 | 87 | 290 | 0.0 | 0.0 | 0.00 | 0.03 | 0.00 | 11 | 1010.3 |
| 20260906000043 | 88 | 289 | 0.0 | 3.0 | 0.00 | 0.03 | 0.00 | 11 | 1010.5 |
| 20260905234542 | 89 | 280 | 0.0 | 3.0 | 0.00 | 0.03 | 0.00 | 36 | 1010.5 |
| 20260905233024 | 90 | 280 | 0.0 | 3.0 | 0.00 | 0.03 | 0.00 | 40 | 1010.5 |
| 20260905231537 | 90 | 299 | 2.0 | 6.0 | 0.00 | 0.03 | 0.00 | 55 | 1010.5 |
| 20260905230006 | 91 | 299 | 2.0 | 4.0 | 0.00 | 0.03 | 0.00 | 61 | 1010.4 |
| 20260905224505 | 92 | 283 | 1.0 | 5.0 | 0.00 | 0.03 | 0.00 | 66 | 1010.3 |
| 20260905223047 | 93 | 250 | 0.0 | 3.0 | 0.00 | 0.03 | 0.00 | 66 | 1010.5 |
| 20260905221550 | 94 | 181 | 0.0 | 4.0 | 0.00 | 0.03 | 0.00 | 66 | 1010.5 |
| 20260905220025 | 92 | 238 | 0.0 | 7.0 | 0.00 | 0.03 | 0.00 | 66 | 1010.7 |
| 20260905214519 | 93 | 229 | 0.0 | 6.0 | 0.00 | 0.03 | 0.00 | 66 | 1010.7 |
| 20260905213059 | 92 | 235 | 1.0 | 6.0 | 0.00 | 0.03 | 0.00 | 64 | 1010.6 |
| 20260905211552 | 91 | 269 | 1.0 | 7.0 | 0.00 | 0.03 | 0.00 | 62 | 1010.9 |
| 20260905210036 | 91 | 288 | 0.0 | 7.0 | 0.00 | 0.03 | 0.00 | 57 | 1011.0 |
| 20260905204532 | 91 | 292 | 3.0 | 7.0 | 0.00 | 0.03 | 0.00 | 44 | 1011.3 |
| 20260905203010 | 90 | 288 | 2.0 | 8.0 | 0.00 | 0.03 | 0.00 | 46 | 1011.4 |
| 20260905201508 | 90 | 276 | 5.0 | 7.0 | 0.00 | 0.03 | 0.00 | 44 | 1011.5 |
| 20260905200048 | 89 | 314 | 4.0 | 9.0 | 0.00 | 0.03 | 0.00 | 29 | 1011.7 |
| 20260905194545 | 88 | 302 | 2.0 | 5.0 | 0.00 | 0.03 | 0.00 | 12 | 1012.1 |
| 20260905193030 | 88 | 351 | 5.0 | 9.0 | 0.00 | 0.03 | 0.00 | 20 | 1012.5 |
| 20260905191528 | 88 | 342 | 5.0 | 10.0 | 0.00 | 0.03 | 0.00 | 27 | 1012.6 |
| 20260905190007 | 89 | 326 | 5.0 | 11.0 | 0.00 | 0.03 | 0.00 | 19 | 1012.7 |
| 20260905184505 | 88 | 335 | 5.0 | 13.0 | 0.00 | 0.03 | 0.00 | 15 | 1012.8 |
| 20260905183107 | 88 | 357 | 4.0 | 11.0 | 0.00 | 0.03 | 0.00 | 21 | 1012.9 |
| 20260905181546 | 89 | 340 | 5.0 | 8.0 | 0.00 | 0.03 | 0.00 | 11 | 1013.2 |
| 20260905180034 | 88 | 335 | 6.0 | 12.0 | 0.00 | 0.03 | 0.00 | 12 | 1013.4 |
| 20260905174533 | 90 | 251 | 3.0 | 9.0 | 0.00 | 0.03 | 0.00 | 29 | 1013.4 |
| 20260905173031 | 89 | 285 | 4.0 | 7.0 | 0.00 | 0.03 | 0.00 | 11 | 1013.8 |
| 20260905171531 | 88 | 317 | 5.0 | 9.0 | 0.00 | 0.03 | 0.00 | 15 | 1013.9 |
| 20260905170030 | 87 | 335 | 3.0 | 7.0 | 0.00 | 0.03 | 0.00 | 11 | 1014.1 |
| 20260905164530 | 87 | 319 | 3.0 | 5.0 | 0.00 | 0.03 | 0.00 | 11 | 1014.2 |
| 20260905163028 | 88 | 310 | 5.0 | 7.0 | 0.00 | 0.03 | 0.00 | 11 | 1014.5 |
| 20260905161527 | 89 | 301 | 3.0 | 6.0 | 0.00 | 0.03 | 0.00 | 11 | 1014.6 |
| 20260905160026 | 89 | 328 | 2.0 | 5.0 | 0.00 | 0.03 | 0.00 | 11 | 1014.7 |
| 20260905154507 | 89 | 208 | 2.0 | 3.0 | 0.00 | 0.03 | 0.00 | 11 | 1014.6 |